Weather History for Hill City, KS

Change the Weather History Date:

Friday, September 13, 2013

  Actual Average Record
Temperature  
Mean Temperature 65 °F 69 °F  
Max Temperature 72 °F 83 °F 105 °F (1911)
Min Temperature 58 °F 55 °F 31 °F (1974)
Growing Degree Days 14 (Base 50)    
Moisture  
Dew Point 59 °F    
Average Humidity 82    
Maximum Humidity 96    
Minimum Humidity 51    
Precipitation  
Precipitation 0.21 in 0.05 in 0.51 in (2001)
Month to date precipitation 1.05 0.90  
Year to date precipitation 13.99 18.78  
Sea Level Pressure  
Sea Level Pressure 30.14 in    
Wind  
Wind Speed 4 mph (ESE)    
Max Wind Speed 13 mph    
Max Gust Speed 20 mph    
Visibility 10 miles    
Events Rain    
T = Trace of Precipitation, MM = Missing Value Source: NWS Daily Summary

Daily Weather History Graph

Daily Weather History Graph

Search for Another Location

Airport:

Trip Planner

Search our weather history database for the weather conditions in past years. The results will help you decide how hot, cold, wet, or windy it might be!

Date:

Astronomy

Sep. 13, 2013 Rise Set
Actual Time 7:18 AM CDT 7:50 PM CDT
Civil Twilight 6:51 AM CDT 8:17 PM CDT
Nautical Twilight 6:20 AM CDT 8:49 PM CDT
Astronomical Twilight 5:47 AM CDT 9:21 PM CDT
Moon 3:40 PM CDT (9/13) 12:51 AM CDT (9/13)
Length of Visible Light 13h 25m
Length of Day
12h 31m
First Quarter, 61% of the Moon is Illuminated
Sep 13
First Quarter
Sep 19
Full
Sep 26
Last Quarter
Oct 4
New
Oct 11
First Quarter

Hourly Weather History & Observations

Time (CDT) Temp. Dew Point Humidity Pressure Visibility Wind Dir Wind Speed Gust Speed Precip Events Conditions
12:02 AM 69.8 °F 68.0 °F 94% 30.21 in 9.0 mi Calm Calm - N/A   Overcast
12:14 AM 69.8 °F 68.0 °F 94% 30.21 in 9.0 mi Calm Calm - N/A   Overcast
12:30 AM 69.8 °F 68.0 °F 94% 30.21 in 9.0 mi Calm Calm - N/A   Overcast
12:38 AM 69.8 °F 68.0 °F 94% 30.21 in 7.0 mi Calm Calm - N/A   Overcast
12:50 AM 69.8 °F 68.0 °F 94% 30.21 in 8.0 mi NE 5.8 mph - 0.01 in Rain Light Rain
12:53 AM 69.1 °F 68.0 °F 96% 30.16 in 8.0 mi NE 5.8 mph - 0.01 in Rain Light Rain
1:53 AM 66.9 °F 61.0 °F 81% 30.16 in 10.0 mi East 10.4 mph 17.3 mph 0.00 in   Mostly Cloudy
2:53 AM 66.0 °F 60.1 °F 81% 30.16 in 10.0 mi ESE 6.9 mph - N/A   Overcast
3:53 AM 64.0 °F 60.1 °F 87% 30.16 in 10.0 mi ESE 3.5 mph - 0.00 in Rain Light Rain
4:53 AM 63.0 °F 60.1 °F 90% 30.17 in 10.0 mi ESE 3.5 mph - 0.01 in Rain Light Rain
5:53 AM 62.1 °F 60.1 °F 93% 30.17 in 10.0 mi ESE 3.5 mph - 0.02 in Rain Light Rain
6:53 AM 61.0 °F 59.0 °F 93% 30.18 in 10.0 mi SE 4.6 mph - 0.03 in Rain Light Rain
7:53 AM 59.0 °F 55.9 °F 90% 30.19 in 9.0 mi ESE 6.9 mph - 0.03 in Rain Light Rain
8:53 AM 57.9 °F 55.0 °F 90% 30.19 in 10.0 mi ESE 8.1 mph - 0.03 in Rain Light Rain
9:53 AM 59.0 °F 55.9 °F 90% 30.19 in 8.0 mi East 4.6 mph - 0.03 in Rain Light Rain
10:53 AM 60.1 °F 57.0 °F 90% 30.19 in 10.0 mi Calm Calm - 0.02 in Rain Light Rain
11:53 AM 61.0 °F 57.0 °F 87% 30.19 in 10.0 mi ESE 3.5 mph - 0.04 in Rain Light Rain
12:53 PM 62.1 °F 57.9 °F 86% 30.16 in 10.0 mi East 4.6 mph - 0.00 in   Overcast
1:53 PM 64.0 °F 57.9 °F 80% 30.14 in 10.0 mi East 5.8 mph - N/A   Overcast
2:53 PM 69.1 °F 54.0 °F 58% 30.10 in 10.0 mi ESE 12.7 mph 19.6 mph N/A   Mostly Cloudy
3:53 PM 70.0 °F 53.1 °F 55% 30.08 in 10.0 mi SE 12.7 mph - N/A   Scattered Clouds
4:53 PM 72.0 °F 53.1 °F 51% 30.06 in 10.0 mi SE 12.7 mph 19.6 mph N/A   Clear
5:53 PM 70.0 °F 52.0 °F 53% 30.04 in 10.0 mi ESE 10.4 mph - N/A   Clear
6:53 PM 68.0 °F 52.0 °F 56% 30.04 in 10.0 mi SE 11.5 mph - N/A   Clear
7:53 PM 64.9 °F 53.1 °F 65% 30.04 in 10.0 mi ESE 8.1 mph - N/A   Clear
8:53 PM 62.1 °F 54.0 °F 75% 30.05 in 10.0 mi ESE 6.9 mph - N/A   Clear
9:53 PM 60.1 °F 55.0 °F 83% 30.06 in 10.0 mi ESE 5.8 mph - N/A   Clear
10:53 PM 59.0 °F 55.0 °F 87% 30.06 in 10.0 mi ESE 3.5 mph - N/A   Clear
11:53 PM 59.0 °F 55.0 °F 87% 30.04 in 10.0 mi ESE 4.6 mph - N/A   Clear